Location: BGSU Observatory
(41.3799°N, 83.6397°W)
Time: 06:23:10
(UTC-05:00)

Amateur Radio Satellites - All Passes

Search period start: 13 December 2017 05:53
Search period end: 14 December 2017 05:53
Location: BGSU Observatory, 41.3799°N, 83.6397°W

Satellite Date Start Highest point End Downlink Frequencies (MHz)
Time Altitude Azimuth
XW-2D 13 Dec 05:59:53 06:03:05 24° 95° (E) 06:06:16 145.860 - 145.880
AO-85 13 Dec 06:04:38 06:07:37 16° 41° (NE) 06:10:43 145.980
NUDT-PHONESAT 13 Dec 06:12:38 06:15:37 22° 95° (E) 06:18:35 437.300
KAITUO 1B 13 Dec 06:12:58 06:16:07 24° 95° (E) 06:19:12 145.475/437.950
ITAMSAT 1 13 Dec 06:13:56 06:16:06 13° 302° (WNW) 06:18:15 435.822/435.867
XW-2B 13 Dec 06:15:24 06:18:59 36° 97° (E) 06:22:32 145.730 - 145.750
PCSat 13 Dec 06:19:18 06:22:26 16° 256° (WSW) 06:25:35 145.827
DOVE 4 13 Dec 06:26:04 06:30:02 29° 291° (WNW) 06:33:47 437.250
XW-2F 13 Dec 06:29:00 06:32:45 50° 100° (E) 06:36:28 145.980 - 146.000
CUTE 1.7 + AOD 2 13 Dec 06:35:32 06:38:16 16° 92° (E) 06:40:59 437.475
BEESAT 3 13 Dec 06:36:11 06:39:38 30° 245° (WSW) 06:43:02 437.485
AO-7 13 Dec 06:37:44 06:43:01 19° 311° (NW) 06:48:18 .
FO-29 13 Dec 06:40:21 06:46:13 24° 58° (ENE) 06:52:05 435.910
XW-2C 13 Dec 06:42:28 06:46:20 83° 102° (ESE) 06:50:11 145.795 - 145.815
NO-84 13 Dec 06:51:05 06:53:24 20° 127° (SE) 06:55:50 435.350 FM
CUBEBUG 2 13 Dec 07:04:21 07:07:31 20° 94° (E) 07:10:44 437.445
STRAND 1 13 Dec 07:06:40 07:11:47 77° 74° (ENE) 07:16:54 437.568
UWE-3 13 Dec 07:08:53 07:10:47 13° 91° (E) 07:12:41 435.000/436.395/437.385
BEESAT 2 13 Dec 07:11:23 07:15:16 47° 243° (WSW) 07:19:04 435.950
HO-68 13 Dec 07:12:54 07:19:45 46° 99° (E) 07:26:33 435.675
LilacSat-2 13 Dec 07:16:53 07:20:25 34° 289° (WNW) 07:23:56 437.200
CUTE-I 13 Dec 07:24:28 07:29:44 62° 288° (WNW) 07:34:57 437.470
XW-2D 13 Dec 07:34:04 07:37:08 23° 291° (WNW) 07:40:11 145.860 - 145.880
ZACube-1 13 Dec 07:37:37 07:39:55 14° 91° (E) 07:42:12 437.345
AO-85 13 Dec 07:43:46 07:48:35 87° 238° (WSW) 07:53:45 145.980
NUDT-PHONESAT 13 Dec 07:46:19 07:49:23 24° 290° (WNW) 07:52:25 437.300
KAITUO 1B 13 Dec 07:46:57 07:49:58 23° 291° (WNW) 07:52:58 145.475/437.950
XW-2B 13 Dec 07:50:24 07:52:51 16° 294° (WNW) 07:55:18 145.730 - 145.750
SEEDS 13 Dec 07:50:31 07:54:46 69° 101° (E) 07:58:58 437.485
Oscar 11 13 Dec 08:00:27 08:02:45 14° 91° (E) 08:05:02 .
XW-2F 13 Dec 08:04:49 08:06:23 12° 296° (WNW) 08:07:58 145.980 - 146.000
CUTE 1.7 + AOD 2 13 Dec 08:10:13 08:14:17 43° 288° (WNW) 08:18:20 437.475
AO-73 13 Dec 08:11:27 08:15:14 29° 96° (E) 08:19:04 145.935
AAUSAT CUBESAT 2 13 Dec 08:14:51 08:18:56 53° 99° (E) 08:23:00 437.432
FO-29 13 Dec 08:22:39 08:30:20 80° 257° (WSW) 08:38:16 435.910
NO-84 13 Dec 08:27:34 08:30:26 34° 327° (NNW) 08:33:31 435.350 FM
CUBEBUG 2 13 Dec 08:40:21 08:44:12 34° 289° (WNW) 08:48:07 437.445
UWE-3 13 Dec 08:43:19 08:47:32 57° 286° (WNW) 08:51:50 435.000/436.395/437.385
XW-2A 13 Dec 08:47:12 08:50:32 49° 286° (WNW) 08:53:51 145.665 - 145.685
STRAND 1 13 Dec 08:49:29 08:51:30 12° 271° (W) 08:53:32 437.568
PRISM 13 Dec 08:57:55 08:58:45 11° 61° (ENE) 08:59:36 437.425
HO-68 13 Dec 09:00:57 09:07:17 36° 297° (WNW) 09:13:36 435.675
O/OREOS (USA 219) 13 Dec 09:09:42 09:14:17 76° 110° (ESE) 09:18:52 437.305
ZACube-1 13 Dec 09:12:14 09:16:27 53° 286° (WNW) 09:20:45 437.345
TIGRISAT 13 Dec 09:17:14 09:21:25 52° 73° (ENE) 09:25:34 435.000
UNISAT 6 13 Dec 09:19:58 09:24:13 62° 75° (ENE) 09:28:26 437.425
AO-85 13 Dec 09:27:07 09:28:24 11° 253° (WSW) 09:29:42 145.980
SEEDS 13 Dec 09:28:28 09:29:51 11° 298° (WNW) 09:31:14 437.485
DELFI C3 13 Dec 09:32:52 09:36:16 27° 96° (E) 09:39:36 145.870
Oscar 11 13 Dec 09:34:56 09:39:10 52° 287° (WNW) 09:43:24 .
AO-73 13 Dec 09:47:46 09:51:21 26° 291° (WNW) 09:54:59 145.935
AAUSAT CUBESAT 2 13 Dec 09:51:50 09:53:54 14° 296° (WNW) 09:55:59 437.432
Max Valier Satellite 13 Dec 10:03:21 10:06:55 42° 99° (E) 10:10:27 145.860
NO-84 13 Dec 10:07:37 10:08:36 11° 348° (NNW) 10:09:36 435.350 FM
FO-29 13 Dec 10:12:07 10:16:24 16° 275° (W) 10:20:44 435.910
EO-79 13 Dec 10:21:37 10:22:16 10° 61° (ENE) 10:22:56 145.935-145.965
PRISM 13 Dec 10:29:15 10:33:25 73° 259° (W) 10:37:35 437.425
EO-88 13 Dec 10:35:09 10:38:50 74° 102° (ESE) 10:42:29 145.990 - 145.960
POLYITAN 1 13 Dec 10:41:49 10:44:35 17° 65° (ENE) 10:47:22 437.675
O/OREOS (USA 219) 13 Dec 10:52:05 10:54:16 13° 309° (NW) 10:56:26 437.305
TIGRISAT 13 Dec 10:56:18 10:58:24 13° 269° (W) 11:00:29 435.000
AIST 2D 13 Dec 10:57:06 11:00:35 78° 77° (ENE) 11:04:07 435.315
UNISAT 6 13 Dec 10:59:59 11:01:19 11° 270° (W) 11:02:37 437.425
QB50P2 13 Dec 11:06:08 11:09:57 35° 71° (ENE) 11:13:47 145.880/145.840
DELFI C3 13 Dec 11:07:46 11:10:51 22° 292° (WNW) 11:13:54 145.870
LO-87 13 Dec 11:11:25 11:14:15 22° 95° (E) 11:17:04 145.935 - 145.965
nSIGHT-1 13 Dec 11:12:55 11:14:22 13° 130° (SE) 11:15:49 .
DUCHIFAT 1 13 Dec 11:14:07 11:17:44 29° 69° (ENE) 11:21:21 145.980
ESTCUBE 1 13 Dec 11:27:06 11:31:03 29° 96° (E) 11:34:58 437.505/2401.250
Max Valier Satellite 13 Dec 11:38:29 11:40:20 13° 294° (WNW) 11:42:12 145.860
NANOSAT C BR1 13 Dec 11:39:01 11:43:08 66° 75° (ENE) 11:47:18 145.865
NO-84 13 Dec 11:46:40 11:47:16 10° 10° (N) 11:47:52 435.350 FM
ISS 13 Dec 11:47:49 11:50:25 22° 133° (SE) 11:53:00 437.550
EO-79 13 Dec 11:53:13 11:57:24 75° 257° (WSW) 12:01:37 145.935-145.965
Gurwin Techsat 1B 13 Dec 11:55:58 11:58:00 12° 58° (ENE) 12:00:02 435.225
BUGSAT 1 13 Dec 12:01:20 12:04:32 23° 68° (ENE) 12:07:44 437.445
AO-91 13 Dec 12:07:16 12:10:25 17° 67° (ENE) 12:13:24 145.960
POLYITAN 1 13 Dec 12:16:06 12:20:03 40° 261° (W) 12:24:01 437.675
SPROUT 13 Dec 12:24:03 12:27:41 27° 96° (E) 12:31:18 437.525
QB50P2 13 Dec 12:42:49 12:45:50 19° 267° (W) 12:48:51 145.880/145.840
LO-87 13 Dec 12:44:49 12:47:32 21° 291° (WNW) 12:50:14 145.935 - 145.965
nSIGHT-1 13 Dec 12:46:58 12:50:10 72° 326° (NW) 12:53:24 .
DUCHIFAT 1 13 Dec 12:50:05 12:53:22 22° 265° (W) 12:56:41 145.980
Oscar 19 13 Dec 13:02:05 13:07:08 64° 73° (ENE) 13:12:15 437.125/150
ESTCUBE 1 13 Dec 13:03:54 13:07:45 28° 292° (WNW) 13:11:35 437.505/2401.250
VELOX 1 13 Dec 13:07:11 13:11:28 48° 100° (E) 13:15:42 145.980
NANOSAT C BR1 13 Dec 13:19:03 13:19:15 10° 270° (W) 13:19:28 145.865
NO-84 13 Dec 13:22:25 13:25:35 25° 30° (NNE) 13:28:57 435.350 FM
ISS 13 Dec 13:23:32 13:26:43 45° 331° (NNW) 13:29:54 437.550
Gurwin Techsat 1B 13 Dec 13:31:48 13:37:07 86° 75° (ENE) 13:42:28 435.225
BUGSAT 1 13 Dec 13:36:16 13:39:45 27° 264° (W) 13:43:14 437.445
RS-15 13 Dec 13:36:41 13:45:48 25° 100° (E) 13:54:51 29.354- 29.394
AO-91 13 Dec 13:41:38 13:46:33 53° 260° (W) 13:51:02 145.960
AO-7 13 Dec 13:50:46 13:57:59 35° 58° (ENE) 14:05:13 .
UKube-1 13 Dec 13:55:45 13:58:59 20° 94° (E) 14:02:12 .
YUBILEINY 13 Dec 13:55:48 14:03:58 40° 72° (ENE) 14:12:02 435.215
SPROUT 13 Dec 13:59:58 14:03:28 25° 292° (WNW) 14:06:58 437.525
DX 1 13 Dec 14:07:37 14:11:49 45° 100° (E) 14:15:57 434.975-435.025
ITAMSAT 1 13 Dec 14:12:56 14:16:25 18° 62° (ENE) 14:19:52 435.822/435.867
50 SAT 13 Dec 14:23:28 14:26:39 86° 110° (ESE) 14:29:47 437.505
nSIGHT-1 13 Dec 14:24:30 14:26:49 18° 344° (NNW) 14:29:08 .
Oscar 19 13 Dec 14:43:56 14:46:53 15° 269° (W) 14:49:51 437.125/150
VELOX 1 13 Dec 14:44:43 14:47:30 17° 296° (WNW) 14:50:17 145.980
M-CUBED/EXP-1 PRIME 13 Dec 14:48:03 14:52:17 68° 70° (ENE) 14:56:49 437.505
MOZHAYETS 4 13 Dec 14:51:03 14:54:20 19° 93° (E) 14:57:38
NO-84 13 Dec 14:59:16 15:03:03 55° 226° (SW) 15:07:05 435.350 FM
BEESAT 13 Dec 14:59:52 15:02:44 16° 92° (E) 15:05:34 436.000
ISS 13 Dec 15:01:42 15:03:48 16° 349° (N) 15:05:56 437.550
SO-50 13 Dec 15:07:16 15:09:57 16° 109° (ESE) 15:12:38 436.795
Gurwin Techsat 1B 13 Dec 15:16:08 15:17:43 11° 272° (W) 15:19:19 435.225
ITUPSAT 1 13 Dec 15:26:13 15:30:21 28° 96° (E) 15:34:28 437.325
UKube-1 13 Dec 15:31:09 15:35:04 34° 290° (WNW) 15:38:58 .
AO-7 13 Dec 15:42:13 15:50:19 58° 257° (WSW) 15:58:32 .
RS-15 13 Dec 15:44:21 15:56:43 89° 300° (WNW) 16:09:02 29.354- 29.394
DX 1 13 Dec 15:44:47 15:47:37 17° 296° (WNW) 15:50:26 434.975-435.025
ITAMSAT 1 13 Dec 15:50:14 15:55:22 60° 258° (WSW) 16:00:33 435.822/435.867
YUBILEINY 13 Dec 15:52:35 16:00:50 46° 272° (W) 16:09:02 435.215
DOVE 4 13 Dec 15:52:53 15:57:27 30° 68° (ENE) 16:01:54 437.250
nSIGHT-1 13 Dec 16:02:14 16:03:59 14° 5° (N) 16:05:45 .
CUBESAT XI-V 13 Dec 16:10:02 16:14:13 31° 96° (E) 16:18:21 437.345
M-CUBED/EXP-1 PRIME 13 Dec 16:25:32 16:27:08 12° 267° (W) 16:28:47 437.505
MOZHAYETS 4 13 Dec 16:27:18 16:31:40 42° 289° (WNW) 16:36:01
BEESAT 13 Dec 16:36:10 16:40:49 55° 288° (WNW) 16:45:27 436.000
ISS 13 Dec 16:39:12 16:41:18 16° 10° (N) 16:43:22 437.550
XW-2D 13 Dec 16:42:20 16:44:06 13° 65° (ENE) 16:45:52 145.860 - 145.880
SO-50 13 Dec 16:45:32 16:49:55 56° 307° (NW) 16:54:22 436.795
KKS-1 13 Dec 16:51:05 16:53:32 14° 92° (E) 16:55:58 437.445
NUDT-PHONESAT 13 Dec 16:53:28 16:54:26 11° 64° (ENE) 16:55:24 437.300
KAITUO 1B 13 Dec 16:54:14 16:55:47 12° 64° (ENE) 16:57:18 145.475/437.950
XW-2B 13 Dec 16:57:10 16:59:48 18° 67° (ENE) 17:02:27 145.730 - 145.750
ITUPSAT 1 13 Dec 17:03:58 17:08:07 30° 292° (WNW) 17:12:16 437.325
CUTE-I 13 Dec 17:07:19 17:11:50 29° 66° (ENE) 17:16:22 437.470
XW-2F 13 Dec 17:09:55 17:12:59 24° 69° (ENE) 17:16:03 145.980 - 146.000
XW-2C 13 Dec 17:23:27 17:26:57 37° 72° (ENE) 17:30:30 145.795 - 145.815
CUTE 1.7 + AOD 2 13 Dec 17:29:16 17:31:04 12° 63° (ENE) 17:32:52 437.475
DOVE 4 13 Dec 17:30:11 17:34:58 34° 264° (W) 17:39:41 437.250
STARS 13 Dec 17:37:18 17:40:17 18° 93° (E) 17:43:15 437.465
nSIGHT-1 13 Dec 17:38:07 17:40:59 29° 25° (NNE) 17:43:50 .
O/OREOS (USA 219) 13 Dec 17:41:38 17:44:29 16° 54° (NE) 17:47:19 437.305
HO-68 13 Dec 17:41:47 17:48:07 35° 63° (ENE) 17:54:28 435.675
CUBESAT XI-V 13 Dec 17:47:28 17:51:28 28° 292° (WNW) 17:55:26 437.345
LilacSat-2 13 Dec 17:57:55 18:01:43 72° 260° (W) 18:05:33 437.200
RS-15 13 Dec 18:00:09 18:11:02 34° 328° (NNW) 18:21:45 29.354- 29.394
CUBEBUG 2 13 Dec 18:03:07 18:05:51 17° 66° (ENE) 18:08:33 437.445
UWE-3 13 Dec 18:07:52 18:08:20 10° 62° (ENE) 18:08:47 435.000/436.395/437.385
XW-2D 13 Dec 18:14:13 18:17:50 45° 261° (W) 18:21:31 145.860 - 145.880
ISS 13 Dec 18:15:15 18:18:25 43° 29° (NNE) 18:21:34 437.550
NUDT-PHONESAT 13 Dec 18:24:11 18:27:47 53° 260° (W) 18:31:25 437.300
KAITUO 1B 13 Dec 18:25:41 18:29:17 48° 261° (W) 18:32:58 145.475/437.950
KKS-1 13 Dec 18:26:04 18:30:23 51° 287° (WNW) 18:34:39 437.445
XW-2B 13 Dec 18:30:22 18:33:45 30° 264° (W) 18:37:09 145.730 - 145.750
SO-50 13 Dec 18:30:46 18:31:23 10° 327° (NNW) 18:32:00 436.795
ZACube-1 13 Dec 18:35:11 18:36:08 11° 62° (ENE) 18:37:04 437.345
SEEDS 13 Dec 18:41:45 18:45:46 45° 73° (ENE) 18:49:50 437.485
XW-2F 13 Dec 18:43:59 18:46:59 22° 265° (W) 18:50:02 145.980 - 146.000
CUTE-I 13 Dec 18:46:44 18:51:42 38° 262° (W) 18:56:42 437.470
Oscar 11 13 Dec 18:56:26 18:57:54 12° 62° (ENE) 18:59:22 .
XW-2C 13 Dec 18:59:08 19:01:16 14° 268° (W) 19:03:25 145.795 - 145.815
CUTE 1.7 + AOD 2 13 Dec 19:02:09 19:06:21 62° 260° (W) 19:10:35 437.475
AAUSAT CUBESAT 2 13 Dec 19:04:38 19:08:24 34° 71° (ENE) 19:12:13 437.432
AO-73 13 Dec 19:07:26 19:10:34 21° 67° (ENE) 19:13:43 145.935
STARS 13 Dec 19:12:41 19:16:46 40° 289° (WNW) 19:20:50 437.465
nSIGHT-1 13 Dec 19:14:13 19:17:15 39° 222° (SW) 19:20:15 .
PCSat 13 Dec 19:15:39 19:20:59 65° 115° (ESE) 19:26:22 145.827
STRAND 1 13 Dec 19:17:36 19:21:50 26° 95° (E) 19:26:02 437.568
XW-2A 13 Dec 19:17:45 19:20:56 45° 74° (ENE) 19:24:11 145.665 - 145.685
O/OREOS (USA 219) 13 Dec 19:19:51 19:24:16 55° 252° (WSW) 19:28:36 437.305
HO-68 13 Dec 19:28:46 19:35:38 47° 260° (W) 19:42:32 435.675
FO-29 13 Dec 19:35:50 19:39:32 15° 85° (E) 19:43:00 435.910
CUBEBUG 2 13 Dec 19:38:09 19:42:09 41° 262° (W) 19:46:06 437.445
UWE-3 13 Dec 19:40:02 19:44:11 72° 259° (W) 19:48:20 435.000/436.395/437.385
ISS 13 Dec 19:52:05 19:54:44 23° 226° (SW) 19:57:23 437.550
ZACube-1 13 Dec 20:07:42 20:11:49 68° 258° (WSW) 20:15:57 437.345
DELFI C3 13 Dec 20:18:37 20:21:11 17° 66° (ENE) 20:23:45 145.870
SEEDS 13 Dec 20:19:12 20:21:40 15° 269° (W) 20:24:09 437.485
RS-15 13 Dec 20:19:43 20:28:41 23° 2° (N) 20:37:24 29.354- 29.394
BEESAT 3 13 Dec 20:24:44 20:28:26 38° 116° (ESE) 20:32:10 437.485
Oscar 11 13 Dec 20:29:09 20:33:26 70° 259° (W) 20:37:46 .
AAUSAT CUBESAT 2 13 Dec 20:40:54 20:43:56 19° 267° (W) 20:46:58 437.432
Max Valier Satellite 13 Dec 20:42:38 20:45:15 19° 68° (ENE) 20:47:54 145.860
AO-73 13 Dec 20:42:58 20:46:38 30° 264° (W) 20:50:18 145.935
STRAND 1 13 Dec 20:56:24 21:01:05 37° 291° (WNW) 21:05:44 437.568
PCSat 13 Dec 21:00:43 21:04:51 22° 315° (NW) 21:09:00 145.827
BEESAT 2 13 Dec 21:02:18 21:05:40 26° 114° (ESE) 21:09:05 435.950
TIGRISAT 13 Dec 21:10:59 21:11:48 10° 90° (E) 21:12:38 435.000
EO-88 13 Dec 21:12:37 21:15:48 29° 71° (ENE) 21:19:01 145.990 - 145.960
UNISAT 6 13 Dec 21:12:56 21:14:52 13° 91° (E) 21:16:48 437.425
FO-29 13 Dec 21:18:35 21:25:39 85° 287° (WNW) 21:31:48 435.910
DELFI C3 13 Dec 21:51:52 21:55:36 38° 262° (W) 21:59:21 145.870
AO-85 13 Dec 21:59:18 22:02:33 26° 113° (ESE) 22:05:55 145.980
BEESAT 3 13 Dec 22:02:58 22:06:05 22° 314° (NW) 22:09:13 437.485
PRISM 13 Dec 22:11:42 22:14:00 15° 92° (E) 22:16:17 437.425
Max Valier Satellite 13 Dec 22:15:46 22:18:53 27° 264° (W) 22:22:03 145.860
ESTCUBE 1 13 Dec 22:26:37 22:30:24 27° 68° (ENE) 22:34:12 437.505/2401.250
RS-15 13 Dec 22:34:54 22:45:53 39° 37° (NE) 22:56:17 29.354- 29.394
BEESAT 2 13 Dec 22:39:45 22:43:18 29° 311° (NW) 22:46:53 435.950
TIGRISAT 13 Dec 22:44:36 22:48:54 68° 286° (WNW) 22:53:17 435.000
EO-88 13 Dec 22:47:04 22:49:29 17° 267° (W) 22:51:54 145.990 - 145.960
UNISAT 6 13 Dec 22:47:39 22:51:54 57° 286° (WNW) 22:56:14 437.425
FO-29 13 Dec 23:05:29 23:09:27 16° 306° (NW) 23:13:12 435.910
SPROUT 13 Dec 23:17:32 23:20:45 22° 67° (ENE) 23:24:00 437.525
LO-87 13 Dec 23:19:33 23:23:01 52° 260° (W) 23:26:29 145.935 - 145.965
NANOSAT C BR1 13 Dec 23:26:13 23:26:32 10° 90° (E) 23:26:51 145.865
SO-50 13 Dec 23:36:47 23:40:10 19° 42° (NE) 23:43:34 436.795
EO-79 13 Dec 23:38:36 23:41:23 17° 93° (E) 23:44:10 145.935-145.965
AO-85 13 Dec 23:39:24 23:42:50 28° 312° (NW) 23:46:27 145.980
FALCONSAT 3 13 Dec 23:43:24 23:46:25 24° 166° (SSE) 23:49:25 435.103
PRISM 13 Dec 23:45:34 23:49:29 44° 288° (WNW) 23:53:21 437.425
AIST 2D 13 Dec 23:54:37 23:58:11 85° 283° (WNW) 00:01:44 435.315
POLYITAN 1 14 Dec 00:00:34 00:04:18 30° 97° (E) 00:08:01 437.675
ESTCUBE 1 14 Dec 00:03:10 00:07:05 29° 264° (W) 00:11:03 437.505/2401.250
VELOX 1 14 Dec 00:04:03 00:08:15 43° 71° (ENE) 00:12:29 145.980
QB50P2 14 Dec 00:25:50 00:30:03 66° 102° (ESE) 00:34:15 145.880/145.840
DUCHIFAT 1 14 Dec 00:32:36 00:36:42 52° 100° (E) 00:40:48 145.980
RS-15 14 Dec 00:47:41 00:59:25 75° 243° (WSW) 01:10:30 29.354- 29.394
50 SAT 14 Dec 00:49:44 00:52:15 22° 70° (ENE) 00:54:46 437.505
UKube-1 14 Dec 00:50:26 00:53:26 19° 65° (ENE) 00:56:28 .
SPROUT 14 Dec 00:52:36 00:56:27 33° 263° (W) 01:00:17 437.525
NANOSAT C BR1 14 Dec 00:58:28 01:02:38 66° 285° (WNW) 01:06:49 145.865
DX 1 14 Dec 01:02:52 01:06:57 40° 71° (ENE) 01:11:04 434.975-435.025
EO-79 14 Dec 01:13:21 01:17:17 39° 289° (WNW) 01:21:13 145.935-145.965
Oscar 19 14 Dec 01:14:14 01:18:14 22° 93° (E) 01:22:13 437.125/150
SO-50 14 Dec 01:16:24 01:21:02 64° 240° (WSW) 01:25:42 436.795
BUGSAT 1 14 Dec 01:17:02 01:20:47 37° 98° (E) 01:24:34 437.445
FALCONSAT 3 14 Dec 01:21:43 01:25:02 32° 182° (S) 01:28:21 435.103
AO-91 14 Dec 01:32:24 01:35:13 22° 95° (E) 01:37:56 145.960
POLYITAN 1 14 Dec 01:36:33 01:39:55 23° 292° (WNW) 01:43:16 437.675
VELOX 1 14 Dec 01:41:52 01:44:52 18° 267° (W) 01:47:54 145.980
Gurwin Techsat 1B 14 Dec 01:48:15 01:53:03 34° 97° (E) 01:57:49 435.225
MOZHAYETS 4 14 Dec 01:53:14 01:56:25 19° 65° (ENE) 01:59:36
QB50P2 14 Dec 02:03:47 02:05:16 12° 298° (WNW) 02:06:46 145.880/145.840
BEESAT 14 Dec 02:06:13 02:09:35 20° 64° (ENE) 02:12:58 436.000
DUCHIFAT 1 14 Dec 02:09:43 02:11:54 14° 296° (WNW) 02:14:06 145.980
50 SAT 14 Dec 02:22:03 02:24:09 16° 265° (W) 02:26:15 437.505
PCSat 14 Dec 02:22:42 02:24:03 11° 35° (NE) 02:25:23 145.827
UKube-1 14 Dec 02:25:04 02:29:09 40° 261° (W) 02:33:15 .
ITUPSAT 1 14 Dec 02:32:52 02:37:08 34° 69° (ENE) 02:41:25 437.325
DX 1 14 Dec 02:40:14 02:43:16 18° 267° (W) 02:46:21 434.975-435.025
Oscar 19 14 Dec 02:52:47 02:57:44 45° 290° (WNW) 03:02:39 437.125/150
BUGSAT 1 14 Dec 02:53:09 02:55:52 18° 294° (WNW) 02:58:35 437.445
YUBILEINY 14 Dec 02:56:39 03:04:49 45° 88° (E) 03:13:03 435.215
FALCONSAT 3 14 Dec 03:00:51 03:03:38 21° 197° (SSW) 03:06:25 435.103
RS-15 14 Dec 03:03:23 03:09:32 16° 264° (W) 03:15:34 29.354- 29.394
AO-91 14 Dec 03:09:09 03:11:35 18° 293° (WNW) 03:13:57 145.960
CUBESAT XI-V 14 Dec 03:13:13 03:17:17 30° 69° (ENE) 03:21:22 437.345
Gurwin Techsat 1B 14 Dec 03:28:16 03:32:54 31° 293° (WNW) 03:37:32 435.225
MOZHAYETS 4 14 Dec 03:28:54 03:33:13 44° 261° (W) 03:37:36
BEESAT 14 Dec 03:42:27 03:47:00 46° 260° (W) 03:51:35 436.000
AO-7 14 Dec 03:43:29 03:51:35 50° 101° (ESE) 03:59:37 .
KKS-1 14 Dec 03:49:25 03:51:57 15° 63° (ENE) 03:54:29 437.445
M-CUBED/EXP-1 PRIME 14 Dec 04:00:37 04:05:01 49° 104° (ESE) 04:09:09 437.505
ITAMSAT 1 14 Dec 04:02:58 04:07:58 47° 100° (E) 04:12:55 435.822/435.867
PCSat 14 Dec 04:03:26 04:08:45 52° 56° (NE) 04:14:01 145.827
ITUPSAT 1 14 Dec 04:11:05 04:14:59 25° 265° (W) 04:18:54 437.325
STARS 14 Dec 04:34:09 04:37:02 17° 64° (ENE) 04:39:55 437.465
BEESAT 3 14 Dec 04:41:16 04:44:32 24° 47° (NE) 04:47:45 437.485
CUBESAT XI-V 14 Dec 04:50:39 04:54:36 27° 265° (W) 04:58:36 437.345
YUBILEINY 14 Dec 04:53:29 05:01:39 41° 288° (WNW) 05:09:54 435.215
BEESAT 2 14 Dec 05:19:35 05:22:32 19° 45° (NE) 05:25:28 435.950
KKS-1 14 Dec 05:23:39 05:28:02 56° 259° (W) 05:32:26 437.445
DOVE 4 14 Dec 05:28:55 05:33:27 69° 101° (E) 05:37:42 437.250
LilacSat-2 14 Dec 05:32:41 05:34:18 12° 91° (E) 05:35:54 437.200
M-CUBED/EXP-1 PRIME 14 Dec 05:35:50 05:38:56 18° 302° (WNW) 05:41:56 437.505
AO-7 14 Dec 05:36:34 05:44:07 40° 300° (WNW) 05:51:41 .
ITAMSAT 1 14 Dec 05:43:09 05:47:06 22° 297° (WNW) 05:51:02 435.822/435.867
XW-2D 14 Dec 05:47:07 05:49:45 17° 93° (E) 05:52:21 145.860 - 145.880
